Theta_e
348 347 344 345 345 346 343 343 343 346 344 343 346 351 353 354 356 355 359 360 359 358 361 361 361 363 362 360 362 361 364 361 358 360 360 359 359 359 359 358 359 357
348 349 348 345 346 349 346 345 344 345 347 345 345 347 351 354 355 355 356 358 360 358 359 363 361 362 361 362 361 359 358 360 358 365 358 357 358 358 357 357 358 357
349 349 349 346 344 346 349 346 346 344 347 348 348 348 349 353 352 356 354 358 358 358 359 361 363 361 362 361 362 361 360 358 357 359 358 357 357 355 356 356 355 358
350 349 349 348 346 345 349 348 348 346 346 348 349 351 351 351 351 350 356 363 357 357 359 360 362 362 362 362 362 359 361 360 360 359 358 359 359 357 356 355 355 354
351 350 350 349 348 347 347 350 349 348 347 348 349 352 352 350 351 349 353 358 357 357 359 359 360 361 362 362 362 359 359 360 360 359 358 357 358 358 358 358 355 354
353 352 352 350 349 348 346 348 350 350 349 349 348 350 352 350 350 350 349 356 357 357 359 359 359 360 362 361 361 359 358 359 359 359 358 357 358 359 359 357 354 354
354 354 353 352 350 349 347 346 350 352 351 350 350 347 348 350 350 351 350 353 357 356 358 358 358 357 360 361 360 359 358 358 356 357 357 357 357 356 358 356 356 354
354 355 355 354 352 351 350 347 347 350 352 351 350 349 347 346 352 352 352 352 354 355 356 358 358 357 358 360 360 359 358 360 358 356 356 356 357 356 357 359 356 353
355 355 355 355 354 352 352 350 348 349 352 351 350 350 349 346 349 353 354 352 352 353 353 354 357 357 357 358 359 359 358 358 359 357 357 356 356 357 357 358 357 356
354 354 355 355 354 354 354 353 351 350 351 351 350 351 351 349 346 351 354 354 353 353 353 352 354 356 356 357 358 359 358 357 357 356 356 357 357 357 358 358 357 355
353 354 353 354 355 355 355 356 354 352 351 351 351 350 351 350 348 348 353 355 354 354 353 352 354 356 356 356 357 359 359 358 357 356 354 355 357 357 364 358 357 356
353 353 353 353 354 355 355 356 356 354 352 352 352 350 350 351 350 348 349 354 355 356 356 354 354 356 356 356 356 358 358 358 358 357 356 354 355 355 359 359 358 357
353 353 353 353 354 354 355 355 355 355 353 352 353 352 349 350 351 350 349 352 355 356 357 357 354 355 356 355 355 356 358 358 358 357 357 357 355 355 356 359 359 359
354 354 353 353 354 354 355 355 355 355 354 353 353 352 349 349 350 352 351 351 354 356 357 359 356 355 355 355 355 355 356 357 357 357 357 357 357 357 356 357 358 359
355 355 355 354 354 354 354 354 354 354 354 353 352 352 351 350 351 353 353 352 353 355 356 358 358 357 356 356 355 354 355 356 356 357 357 356 356 356 356 357 358 359
355 355 354 355 354 353 353 353 353 353 353 354 353 352 351 350 351 352 354 354 354 354 355 356 357 359 354 345 349 355 355 355 356 356 356 356 356 355 355 355 356 358
355 354 354 354 354 354 354 353 352 352 353 354 354 353 352 351 350 351 352 354 355 355 354 354 355 356 344 336 339 344 355 355 354 354 355 355 355 354 354 354 355 356
355 355 354 354 354 354 354 353 352 352 352 353 354 352 352 352 350 350 352 353 355 356 355 355 355 348 336 334 336 337 346 357 355 354 355 354 353 354 354 354 354 355
356 355 355 354 354 355 354 353 352 352 351 352 353 354 353 352 351 350 351 353 354 355 356 357 356 343 333 332 333 334 336 350 355 353 354 354 353 353 353 353 353 353
356 356 355 355 355 355 355 353 352 352 352 352 354 355 353 353 352 350 351 353 354 354 356 358 357 345 330 329 330 331 333 341 356 353 352 353 354 354 354 352 352 352
357 356 355 355 356 356 355 354 353 352 352 352 353 354 354 353 352 351 350 353 355 355 355 357 359 339 327 326 326 326 330 336 355 355 352 350 351 354 354 353 352 352
357 356 356 356 356 356 355 354 353 352 352 352 352 353 355 355 354 353 352 351 354 356 355 355 358 333 327 325 324 325 328 344 353 354 353 351 349 350 353 354 354 353
358 357 356 356 356 356 355 355 354 353 353 354 351 351 354 354 354 353 353 352 352 354 355 355 357 336 325 322 322 323 327 347 352 354 354 352 351 351 352 354 356 355
359 358 357 357 356 356 356 356 356 355 353 355 352 351 351 354 355 354 354 354 352 352 354 355 357 339 321 321 320 320 331 349 352 353 353 353 352 352 354 356 360 368
360 359 358 357 357 357 357 357 356 355 354 355 354 353 351 354 356 355 354 354 354 353 351 351 354 342 317 320 319 318 330 350 352 353 352 352 352 351 351 352 352 360
361 360 359 358 358 358 358 358 358 357 355 354 354 354 351 352 355 355 354 354 355 355 354 353 352 352 329 316 316 316 321 349 352 352 351 352 352 351 351 350 351 351
Wind_Speed
11 9 11 9 9 10 10 8 7 8 7 7 8 8 9 8 8 8 8 7 8 7 5 6 6 6 6 5 3 3 3 3 4 6 6 6 5 5 5 4 4 5
13 11 10 9 8 8 9 10 9 9 8 8 8 7 7 7 9 9 8 9 8 8 7 6 7 6 6 5 4 4 3 2 2 3 5 5 5 4 5 4 6 5
13 12 12 12 11 10 11 10 10 9 9 9 8 7 7 6 7 8 8 9 9 9 8 7 6 6 6 5 4 5 5 4 3 3 3 5 5 5 4 4 3 5
15 14 13 13 12 12 10 10 9 9 9 8 9 9 9 8 7 7 8 9 9 9 8 7 7 6 7 6 6 5 5 5 5 4 3 3 5 5 5 4 4 3
16 15 13 13 12 12 10 11 12 11 11 10 9 9 9 9 8 9 7 8 9 9 8 9 7 7 7 7 6 6 6 6 5 5 4 4 4 5 4 4 4 4
14 14 14 14 13 13 12 12 12 12 12 11 12 9 10 11 10 10 9 9 9 10 10 9 8 7 8 7 7 7 7 6 6 6 6 5 4 4 4 4 4 4
15 14 15 13 14 14 14 13 12 12 12 12 11 11 9 10 11 11 11 10 10 10 10 10 9 9 7 8 8 8 7 7 6 7 7 6 5 5 4 5 5 5
16 15 14 14 15 15 14 14 13 12 12 11 12 13 12 11 11 11 11 12 10 10 10 10 10 10 9 8 9 8 8 7 7 7 8 7 6 7 6 5 4 6
16 15 14 16 16 15 16 15 14 13 12 13 12 11 12 12 11 11 12 12 11 10 10 9 10 10 9 9 9 10 10 9 8 7 8 8 8 8 8 6 5 5
16 15 16 16 17 15 16 16 15 14 12 13 13 11 12 12 12 11 11 12 13 12 11 10 10 10 10 10 10 11 10 10 9 8 7 8 9 8 8 7 7 6
17 16 17 17 17 15 17 16 15 14 13 14 13 13 12 12 12 11 10 12 13 13 12 12 11 11 12 12 10 10 11 10 9 8 8 8 8 8 8 8 7 7
18 17 18 19 18 17 17 16 15 14 14 13 14 14 13 13 13 12 11 12 13 13 13 13 12 12 12 13 12 11 10 10 10 9 9 9 8 7 7 8 8 8
18 18 18 18 18 17 15 15 15 15 15 15 14 14 14 13 13 13 12 12 12 12 12 12 12 11 11 12 12 11 11 10 10 10 9 7 8 9 8 7 8 8
18 18 17 17 16 15 15 15 15 15 15 14 13 14 14 14 14 14 12 12 12 12 12 11 12 11 11 11 11 11 10 10 10 10 10 9 7 8 9 9 9 8
16 15 15 15 16 15 15 15 15 14 13 13 14 14 13 14 14 14 13 13 12 12 12 11 11 11 10 11 11 11 10 10 11 11 10 10 9 8 8 8 8 9
15 15 15 15 16 16 16 16 15 15 14 14 15 15 14 13 13 14 14 14 13 13 12 11 10 9 12 17 15 12 11 10 9 10 10 9 10 9 9 9 9 9
14 15 15 16 17 16 16 16 16 15 14 14 14 14 14 13 11 13 14 14 14 14 13 12 11 10 16 16 17 17 12 9 9 9 9 9 9 9 10 10 9 10
15 15 16 16 16 16 16 16 14 14 15 14 14 15 14 12 13 12 13 14 13 14 14 13 12 14 17 17 17 17 15 11 9 8 9 9 9 9 9 9 9 9
15 16 16 16 16 16 15 14 14 14 15 14 15 15 14 14 14 12 11 13 14 14 14 13 12 15 17 19 18 18 18 15 9 9 8 10 10 10 9 9 8 8
15 16 16 16 15 14 14 15 15 15 15 14 13 13 15 15 14 14 11 12 13 14 13 12 13 15 18 18 19 19 19 16 11 11 10 9 10 11 10 9 9 9
16 16 16 15 15 15 15 16 16 14 14 13 13 13 15 15 15 15 13 11 12 13 12 12 12 16 17 19 19 19 19 16 12 10 9 9 9 9 10 10 9 9
17 17 16 15 15 15 16 16 16 16 15 13 12 11 11 12 12 13 14 13 11 13 13 13 12 18 19 19 20 20 20 12 11 10 9 9 9 8 8 9 10 10
19 18 17 17 16 16 17 17 16 16 14 11 11 11 12 13 13 13 12 13 12 11 13 13 11 16 20 21 21 22 15 11 11 10 10 10 10 8 8 8 9 10
18 19 18 18 17 18 18 16 15 14 14 12 12 13 13 13 12 12 12 12 13 13 11 11 12 14 21 21 22 21 17 13 11 11 11 11 11 7 5 5 7 12
18 18 18 18 18 18 16 16 16 15 13 12 12 11 11 10 11 11 11 11 12 13 15 13 10 11 19 21 22 21 18 12 12 11 11 11 10 10 9 8 7 8
16 18 18 18 18 17 15 15 13 12 14 14 13 11 10 10 11 12 13 12 11 12 12 13 13 9 13 20 21 21 23 15 10 11 12 12 11 11 10 9 10 10
Wind_Direction
187 185 182 178 180 184 185 182 180 176 183 176 173 184 185 187 186 185 182 184 187 194 189 189 186 182 188 197 174 150 133 174 179 176 178 186 192 197 201 203 195 205
191 188 187 184 180 182 184 185 183 178 184 185 188 184 188 179 189 186 182 185 187 194 194 187 187 177 175 172 174 163 178 192 215 167 174 173 192 200 215 210 197 207
189 189 188 188 188 186 183 187 183 186 182 188 188 188 192 189 185 188 187 183 186 190 192 188 184 183 175 176 174 169 181 192 210 230 177 183 194 198 230 233 218 200
192 191 191 192 190 190 185 182 188 188 188 185 188 190 193 198 195 187 183 186 184 188 189 187 185 183 179 177 176 183 186 192 202 205 214 210 192 187 203 224 241 226
192 193 193 192 192 191 188 185 188 189 191 193 190 188 190 194 197 199 184 184 184 185 185 188 187 185 180 180 177 185 190 195 198 198 212 217 217 189 203 192 225 244
197 195 193 193 192 189 192 192 191 190 192 191 194 188 190 191 194 196 193 184 186 185 186 185 189 189 183 186 184 188 192 194 197 192 203 214 224 207 199 196 216 233
198 195 195 194 194 193 195 196 194 193 194 193 190 195 188 189 194 194 193 190 185 187 185 187 190 191 188 186 189 192 196 194 192 190 195 207 208 226 218 198 205 208
199 197 195 194 194 195 197 197 198 196 195 192 192 196 194 192 191 193 191 190 187 188 187 187 190 193 191 186 192 193 197 196 199 193 199 201 199 211 221 220 199 205
197 197 196 195 196 197 199 198 199 199 195 196 195 194 196 199 194 191 189 189 189 188 187 185 189 193 193 191 196 195 195 200 202 198 195 198 198 204 211 218 221 207
196 198 197 196 197 199 200 200 199 200 197 198 198 194 195 198 198 193 187 187 189 189 190 188 187 192 194 197 198 196 196 199 201 203 199 197 200 200 202 204 218 222
197 198 199 199 200 200 201 200 199 199 198 199 197 199 195 195 197 196 187 188 190 190 191 193 191 192 194 199 199 197 197 197 198 201 205 202 200 201 198 198 207 217
197 198 200 201 200 200 201 200 199 199 198 199 197 198 197 195 194 196 191 190 192 192 192 195 195 194 195 198 198 196 196 198 197 201 203 204 204 198 198 198 203 212
196 198 199 200 200 200 199 199 200 199 199 199 197 198 197 196 195 194 195 192 194 193 194 195 196 196 197 197 198 196 196 196 198 200 204 203 206 206 205 199 202 208
197 197 198 199 199 199 198 199 199 200 199 198 197 199 200 198 194 193 194 194 195 196 196 194 196 199 197 198 198 198 194 197 197 198 203 207 205 206 207 208 207 208
194 195 197 198 198 197 199 199 199 200 198 195 196 200 201 200 195 192 191 194 196 196 197 196 196 200 198 196 198 200 197 196 198 198 200 203 209 208 204 206 210 213
191 193 195 196 197 198 200 199 198 198 197 195 195 198 199 200 196 193 191 192 193 196 197 199 200 200 199 196 196 198 198 199 197 200 200 201 204 208 209 208 211 214
190 194 194 196 198 199 199 200 198 196 197 195 193 195 197 199 197 193 193 192 193 194 197 201 203 204 197 194 197 199 197 200 197 201 203 202 201 202 208 208 212 215
191 192 195 198 197 200 200 200 200 197 197 194 192 193 195 196 199 196 193 191 193 194 197 200 203 202 193 194 197 199 199 201 202 200 204 206 205 205 208 207 208 210
189 192 196 198 200 199 199 199 201 201 199 196 194 192 190 194 200 194 194 193 192 193 196 198 203 199 192 193 197 198 200 201 206 205 202 207 209 210 209 208 208 210
191 194 197 200 198 197 196 199 202 204 202 199 195 190 191 195 195 197 191 193 194 193 195 197 201 197 191 194 197 198 201 200 209 208 209 209 210 211 211 210 208 207
193 195 198 198 197 197 197 200 203 205 204 201 196 193 193 194 194 196 195 191 193 192 193 196 202 191 187 193 198 199 202 200 211 212 214 216 215 212 211 211 210 209
193 194 195 195 196 196 198 200 202 203 203 201 199 195 196 194 198 197 196 193 189 190 193 199 199 183 186 191 196 200 198 197 208 211 216 220 224 218 210 211 211 211
192 192 192 193 194 196 199 200 200 202 202 200 201 197 191 195 196 197 196 197 194 189 193 197 200 185 186 191 195 199 190 200 203 208 215 221 226 218 212 209 211 212
193 190 191 192 193 198 199 199 199 199 201 197 201 198 196 195 194 197 197 199 199 199 192 190 201 187 188 191 195 193 186 194 199 204 215 220 229 224 212 213 212 217
194 191 190 191 195 199 196 196 196 197 197 198 203 203 201 191 191 196 198 199 201 203 200 195 198 189 191 192 195 190 188 195 194 202 210 219 222 228 228 229 237 237
195 191 191 192 195 195 195 196 193 192 196 199 202 203 201 195 190 195 197 200 198 201 202 203 207 193 189 197 194 191 189 191 194 194 208 215 216 219 223 229 235 242